{"data":{"norad_id":64002,"intl_designator":"2025-101J","name":"STARLINK-33898","alt_names":[],"object_type":"PAYLOAD","status":"ACTIVE","operator":null,"country":"US","launch_date":"2025-05-14","launch_site_code":"AFETR","launch_vehicle":null,"mission":null,"orbit_class":"UNKNOWN","rcs_meters":null,"size_class":null,"mass_kg":null,"dimensions":null,"purposes":["comms"],"wikipedia_slug":null,"has_3d_model":false,"image_url":null,"decayed_at":null,"tle_current":{"epoch":"2026-05-24T10:08:04.156512Z","epoch_age_seconds":120883,"freshness":"FRESH","line1":"1 64002U 25101J   26144.42227033  .00028374  00000+0  10366-2 0  9992","line2":"2 64002  42.9934 290.6093 0000539  15.6284 344.4584 15.27582255 58633","mean_motion":15.27582255,"eccentricity":5.39e-5,"inclination_deg":42.9934,"raan_deg":290.6093,"arg_perigee_deg":15.6284,"mean_anomaly_deg":344.4584,"bstar":0.0010366,"rev_number":5863,"period_min":94.266609558122,"perigee_km":482.6725262001,"apogee_km":483.41216133336,"semimajor_km":6861.1793437667,"source":"CELESTRAK","updated_at":"2026-05-25T13:38:20.219152Z"}}}